sat.trackr.live / text

‹ back to catalog

QIANFAN-69

NORAD 62799 · 2025-016Q

PAYLOAD ACTIVE UNKNOWN

§ Identity

Operator
Country
PRC
Launch date
2025-01-23
Launch site
TAISC
Launch vehicle
Mass (kg)
RCS (m²)

External: N2YO · Heavens-Above · Gunter

§ Orbital elements

Epoch: 2026-09-22T21:02:47.192640Z

Period
106.59 min
Inclination
88.9649°
Eccentricity
0.0014206
Mean motion
13.51024525 rev/d
Perigee alt
1,057.9 km
Apogee alt
1,079.1 km
Semi-major
7,446.6 km
B*
6.9033e-5
RAAN
73.3966°
Arg perigee
240.8433°
Mean anomaly
119.1297°
Rev number
8,564

§ Raw data

QIANFAN-691 62799U 25016Q   26265.87693510  .00000057  00000+0  69033-4 0  99932 62799  88.9649  73.3966 0014206 240.8433 119.1297 13.51024525 85641

JSON: /api/v1/satellites/62799 · /tle

For live sub-satellite position, see the globe view (requires WebGL).

§ Visibility from observer

Set your observer location to see the next 7 days of passes ≥ 10°. The values pass through the URL so the page stays shareable.

No JS? Fill the form by hand. The geolocation button needs JavaScript.